Date String (YYYY-MM-DD hh:mm:ss) UTC,Instrument flags,absolute air pressure of the measurement (hPa),sample flow rate (lpm),inlet stack bypass flow (lpm),air temperature of the measurement (°C),ambient temperature measured by the external sensor (°C),aerosol sample conditioner tube jacket temperature (°C),OPC LED temperature (°C),internal box temperature (°C),relative humidity of the measurement (%),span deviation,mass concentration of particles derived from Lorenz-Mie calculation of OPC scattering (μg/m³),mass concentration of particles derived from Lorenz-Mie calculation of OPC scattering (μg/m³),mass concentration of particles derived from Lorenz-Mie calculation of OPC scattering (μg/m³)
DateTimeUTC,F1_M11,P_M11,Q1_M11,Q2_M11,T1_M11,T2_M11,T3_M11,T4_M11,T5_M11,U1_M11,ZSPAN_M11,X2_M11,X0_M11,X1_M11
2024-01-08 03:00:00,SystemResetWarning,0815.6,4.99,000.00,019.6,018.9,000.0,028.0,020.8,9.7,0000.0,0003.18,0008.09,0002.22
2024-01-08 03:01:00,SystemResetWarning,0815.6,4.99,000.00,019.6,018.9,000.0,028.0,020.9,9.7,0000.0,0003.19,0008.15,0002.20
2024-01-08 03:02:00,SystemResetWarning,0815.6,4.99,000.00,019.6,018.9,000.0,028.0,020.8,9.7,0000.0,0003.19,0008.06,0002.18
2024-01-08 03:03:00,SystemResetWarning,0815.6,5.00,000.00,019.6,018.9,000.0,028.0,020.8,9.7,0000.0,0003.18,0007.53,0002.16
2024-01-08 03:04:00,SystemResetWarning,0815.6,5.01,000.00,019.6,018.9,000.0,028.0,020.8,9.7,0000.0,0003.17,0007.39,0002.13
2024-01-08 03:05:00,SystemResetWarning,0815.6,5.00,000.00,019.6,018.9,000.0,028.0,020.8,9.7,0000.0,0003.17,0007.40,0002.10
2024-01-08 03:06:00,SystemResetWarning,0815.6,5.00,000.00,019.6,018.9,000.0,028.0,020.8,9.7,0000.0,0003.17,0007.40,0002.08
2024-01-08 03:07:00,SystemResetWarning,0815.7,5.00,000.00,019.6,018.9,000.0,028.0,020.8,9.7,0000.0,0003.14,0006.88,0002.04
2024-01-08 03:08:00,SystemResetWarning,0815.6,5.01,000.00,019.6,018.9,000.0,028.0,020.8,9.7,0000.0,0003.12,0007.10,0002.02
2024-01-08 03:09:00,SystemResetWarning,0815.7,5.00,000.00,019.5,018.9,000.0,028.0,020.8,9.6,0000.0,0003.08,0006.41,0001.99
2024-01-08 03:10:00,SystemResetWarning,0815.6,5.00,000.00,019.5,018.9,000.0,028.0,020.8,9.6,0000.0,0003.00,0006.45,0001.98
2024-01-08 03:11:00,SystemResetWarning,0815.7,5.00,000.00,019.5,018.9,000.0,028.0,020.8,9.6,0000.0,0002.98,0007.92,0001.97
2024-01-08 03:12:00,SystemResetWarning,0815.7,5.00,000.00,019.5,018.9,000.0,027.9,020.8,9.7,0000.0,0002.95,0007.93,0001.96
2024-01-08 03:13:00,SystemResetWarning,0815.7,5.00,000.00,019.5,018.9,000.0,027.9,020.8,9.7,0000.0,0002.93,0007.86,0001.95
2024-01-08 03:14:00,SystemResetWarning,0815.7,5.00,000.00,019.5,018.9,000.0,027.9,020.8,9.7,0000.0,0002.97,0007.98,0001.95
2024-01-08 03:15:00,SystemResetWarning,0815.7,5.00,000.00,019.5,018.9,000.0,027.9,020.8,9.7,0000.0,0003.03,0008.19,0001.96
2024-01-08 03:16:00,SystemResetWarning,0815.7,5.00,000.00,019.5,018.9,000.0,027.9,020.8,9.7,0000.0,0003.00,0008.19,0001.97
2024-01-08 03:17:00,SystemResetWarning,0815.7,5.01,000.00,019.5,018.9,000.0,027.9,020.8,9.7,0000.0,0003.01,0008.17,0001.98
2024-01-08 03:18:00,SystemResetWarning,0815.7,5.00,000.00,019.5,018.9,000.0,027.9,020.8,9.6,0000.0,0002.99,0008.07,0001.98
2024-01-08 03:19:00,SystemResetWarning,0815.7,5.00,000.00,019.5,018.9,000.0,027.9,020.8,9.6,0000.0,0003.01,0008.13,0001.97
2024-01-08 03:20:00,SystemResetWarning,0815.8,4.99,000.00,019.5,018.9,000.0,027.9,020.8,9.6,0000.0,0003.03,0007.79,0001.97
2024-01-08 03:21:00,SystemResetWarning,0815.8,5.00,000.00,019.5,018.8,000.0,027.9,020.8,9.6,0000.0,0003.04,0007.95,0001.98
2024-01-08 03:22:00,SystemResetWarning,0815.8,5.00,000.00,019.5,018.8,000.0,027.9,020.7,9.6,0000.0,0003.07,0007.45,0001.98
2024-01-08 03:23:00,SystemResetWarning,0815.8,5.00,000.00,019.5,018.8,000.0,027.9,020.7,9.6,0000.0,0003.10,0007.47,0001.99
2024-01-08 03:24:00,SystemResetWarning,0815.8,5.00,000.00,019.5,018.8,000.0,027.9,020.7,9.6,0000.0,0003.09,0007.43,0001.99
2024-01-08 03:25:00,SystemResetWarning,0815.8,5.01,000.00,019.5,018.8,000.0,027.9,020.7,9.6,0000.0,0003.08,0007.72,0002.00
2024-01-08 03:26:00,SystemResetWarning,0815.8,5.00,000.00,019.5,018.8,000.0,027.9,020.7,9.5,0000.0,0003.02,0007.87,0001.99
2024-01-08 03:27:00,SystemResetWarning,0815.8,5.00,000.00,019.5,018.8,000.0,027.9,020.7,9.5,0000.0,0003.06,0008.60,0002.00
2024-01-08 03:28:00,SystemResetWarning,0815.8,4.99,000.00,019.5,018.8,000.0,027.9,020.7,9.5,0000.0,0003.04,0008.62,0002.01
2024-01-08 03:29:00,SystemResetWarning,0815.8,4.99,000.00,019.5,018.8,000.0,027.9,020.7,9.5,0000.0,0003.05,0008.73,0002.01
2024-01-08 03:30:00,SystemResetWarning,0815.9,4.99,000.00,019.5,018.8,000.0,027.8,020.7,9.5,0000.0,0002.96,0008.64,0002.02
2024-01-08 03:31:00,SystemResetWarning,0815.8,5.00,000.00,019.4,018.8,000.0,027.8,020.7,9.5,0000.0,0002.90,0008.80,0002.01
2024-01-08 03:32:00,SystemResetWarning,0815.9,5.00,000.00,019.4,018.8,000.0,027.8,020.7,9.4,0000.0,0002.94,0009.30,0002.01
2024-01-08 03:33:00,SystemResetWarning,0815.9,5.00,000.00,019.4,018.8,000.0,027.8,020.7,9.4,0000.0,0002.94,0008.92,0002.00
2024-01-08 03:34:00,SystemResetWarning,0815.9,5.00,000.00,019.4,018.8,000.0,027.8,020.7,9.4,0000.0,0002.88,0008.70,0001.98
2024-01-08 03:35:00,SystemResetWarning,0815.9,4.99,000.00,019.4,018.8,000.0,027.8,020.6,9.4,0000.0,0002.88,0008.80,0001.98
2024-01-08 03:36:00,SystemResetWarning,0815.9,4.99,000.00,019.4,018.8,000.0,027.8,020.7,9.4,0000.0,0002.83,0008.69,0001.97
2024-01-08 03:37:00,SystemResetWarning,0815.9,5.01,000.00,019.4,018.8,000.0,027.8,020.7,9.4,0000.0,0002.83,0009.27,0001.96
2024-01-08 03:38:00,SystemResetWarning,0815.9,5.01,000.00,019.4,018.8,000.0,027.8,020.7,9.4,0000.0,0002.77,0009.00,0001.95
2024-01-08 03:39:00,SystemResetWarning,0815.9,5.00,000.00,019.4,018.7,000.0,027.8,020.6,9.4,0000.0,0002.78,0008.89,0001.93
2024-01-08 03:40:00,SystemResetWarning,0816.0,5.00,000.00,019.4,018.7,000.0,027.8,020.7,9.4,0000.0,0002.73,0008.70,0001.91
2024-01-08 03:41:00,SystemResetWarning,0816.0,5.00,000.00,019.4,018.7,000.0,027.8,020.6,9.4,0000.0,0002.71,0008.69,0001.89
2024-01-08 03:42:00,SystemResetWarning,0816.0,5.00,000.00,019.4,018.7,000.0,027.8,020.7,9.4,0000.0,0002.74,0008.71,0001.88
2024-01-08 03:43:00,SystemResetWarning,0816.0,4.99,000.00,019.4,018.7,000.0,027.8,020.6,9.4,0000.0,0002.69,0008.96,0001.87
2024-01-08 03:44:00,SystemResetWarning,0816.0,4.99,000.00,019.4,018.7,000.0,027.8,020.6,9.4,0000.0,0002.67,0008.67,0001.86
2024-01-08 03:45:00,SystemResetWarning,0816.0,5.00,000.00,019.4,018.7,000.0,027.8,020.6,9.4,0000.0,0002.59,0008.43,0001.86
2024-01-08 03:46:00,SystemResetWarning,0816.0,5.00,000.00,019.4,018.7,000.0,027.8,020.6,9.4,0000.0,0002.56,0008.41,0001.84
2024-01-08 03:47:00,SystemResetWarning,0816.0,5.00,000.00,019.4,018.7,000.0,027.8,020.6,9.4,0000.0,0002.52,0008.32,0001.82
2024-01-08 03:48:00,SystemResetWarning,0816.0,5.01,000.00,019.4,018.7,000.0,027.8,020.6,9.4,0000.0,0002.46,0007.56,0001.79
2024-01-08 03:49:00,SystemResetWarning,0816.0,5.00,000.00,019.4,018.7,000.0,027.8,020.6,9.4,0000.0,0002.42,0006.75,0001.77
2024-01-08 03:50:00,SystemResetWarning,0816.0,5.00,000.00,019.4,018.7,000.0,027.8,020.6,9.4,0000.0,0002.42,0006.62,0001.76
2024-01-08 03:51:00,SystemResetWarning,0816.1,4.99,000.00,019.4,018.7,000.0,027.7,020.6,9.4,0000.0,0002.44,0006.61,0001.76
2024-01-08 03:52:00,SystemResetWarning,0816.1,4.99,000.00,019.3,018.7,000.0,027.7,020.6,9.4,0000.0,0002.49,0006.72,0001.74
2024-01-08 03:53:00,SystemResetWarning,0816.1,5.00,000.00,019.3,018.7,000.0,027.7,020.6,9.4,0000.0,0002.46,0006.25,0001.74
2024-01-08 03:54:00,SystemResetWarning,0816.1,5.01,000.00,019.3,018.7,000.0,027.7,020.6,9.4,0000.0,0002.39,0005.35,0001.73
2024-01-08 03:55:00,SystemResetWarning,0816.1,5.00,000.00,019.3,018.7,000.0,027.7,020.6,9.4,0000.0,0002.33,0005.61,0001.70
2024-01-08 03:56:00,SystemResetWarning,0816.1,5.01,000.00,019.3,018.7,000.0,027.7,020.6,9.4,0000.0,0002.31,0005.56,0001.69
2024-01-08 03:57:00,SystemResetWarning,0816.1,5.01,000.00,019.3,018.7,000.0,027.7,020.6,9.4,0000.0,0002.30,0005.54,0001.69
2024-01-08 03:58:00,SystemResetWarning,0816.1,5.00,000.00,019.3,018.7,000.0,027.7,020.6,9.4,0000.0,0002.25,0005.15,0001.68
2024-01-08 03:59:00,SystemResetWarning,0816.1,4.99,000.00,019.3,018.7,000.0,027.7,020.6,9.4,0000.0,0002.22,0004.92,0001.68
